This is the latest recevied weather packets stored in our database for station/object W2IRT. If no packets are shown the sender has not sent any weather packets the latest 1 day(s).
| Time | Temp. | Humidity | Pressure | Rain* | Wind** | Luminosity | Snow |
|---|---|---|---|---|---|---|---|
| 1778034917 | 22.78° C | 48% | 1009.2 hPa | 0 mm | 0.45 m/s, 225° | - | - |
| 1778034616 | 23.33° C | 48% | 1009.2 hPa | 0 mm | 0.45 m/s, 225° | - | - |
| 1778034317 | 23.33° C | 47% | 1009.2 hPa | 0 mm | 0.45 m/s, 135° | - | - |
| 1778034016 | 23.33° C | 46% | 1009.1 hPa | 0 mm | 0.45 m/s, 135° | - | - |
| 1778033417 | 23.89° C | 44% | 1009.1 hPa | 0 mm | 0.45 m/s, 202° | - | - |
| 1778033117 | 23.89° C | 43% | 1008.9 hPa | 0 mm | 0.89 m/s, 225° | - | - |
| 1778032516 | 24.44° C | 42% | 1008.9 hPa | 0 mm | 0.45 m/s, 225° | - | - |
| 1778032216 | 24.44° C | 41% | 1008.9 hPa | 0 mm | 0.45 m/s, 202° | - | - |
| 1778031916 | 24.44° C | 41% | 1008.8 hPa | 0 mm | 1.34 m/s, 225° | - | - |
| 1778031617 | 24.44° C | 40% | 1008.9 hPa | 0 mm | 0.89 m/s, 202° | - | - |
| 1778031316 | 24.44° C | 40% | 1008.8 hPa | 0 mm | 0.89 m/s, 225° | - | - |
| 1778031031 | 24.44° C | 39% | 1008.7 hPa | 0 mm | 0.45 m/s, 225° | - | - |
| 1778030716 | 25° C | 38% | 1008.6 hPa | 0 mm | 0.45 m/s, 202° | - | - |
| 1778030416 | 25° C | 38% | 1008.6 hPa | 0 mm | 0.45 m/s, 225° | - | - |
| 1778029516 | 25° C | 37% | 1008.4 hPa | 0 mm | 0.45 m/s, 202° | - | - |
| 1778029216 | 25° C | 36% | 1008.4 hPa | 0 mm | 0.89 m/s, 202° | - | - |
| 1778027716 | 25.56° C | 34% | 1008.1 hPa | 0 mm | 0.89 m/s, 202° | - | - |
| 1778027416 | 25.56° C | 34% | 1008 hPa | 0 mm | 0.45 m/s, 202° | - | - |
| 1778027116 | 26.11° C | 33% | 1008 hPa | 0 mm | 0.45 m/s, 202° | - | - |
| 1778026816 | 26.11° C | 32% | 1007.9 hPa | 0 mm | 0.45 m/s, 225° | - | - |
| 1778026516 | 26.11° C | 32% | 1007.8 hPa | 0 mm | 0.89 m/s, 225° | - | - |
| 1778026216 | 26.11° C | 31% | 1007.8 hPa | 0 mm | 1.34 m/s, 225° | - | - |
| 1778025916 | 26.11° C | 31% | 1007.9 hPa | 0 mm | 0.45 m/s, 225° | - | - |
| 1778025616 | 26.67° C | 30% | 1007.8 hPa | 0 mm | 0.45 m/s, 225° | - | - |
| 1778025316 | 26.67° C | 30% | 1007.8 hPa | 0 mm | 0.89 m/s, 225° | - | - |
* Rain latest hour (hover to see other rain measurements)
** Current wind speed in m/s (hover to see current wind gust speed)